Lexington Weather

Lexington, Massachusetts, USA

33°F
12/8/2019 3:26pm 
  • Lexington Conditions: Mostly cloudy
  • Temperature: 33.4°F / 0.8°CColder 1.3°F than last hour.
  • Dew Point: 17.2°FIncreased 3.2°Fsince last hour.
  • Relative Humidity: 51%Increased 9.0% since last hour.
  • Wind: Wind from S S Calm, 10-min avg: 2 mph, gust: 4 mph
  • Barometer: 30.40 in Steady
  • Visibility: 10 miles
  • Snow Today: 0.0 in
  •   

Regional Weather Roundup
for Boston / Norton, MA

        
000
ASUS41 KBOX 081110
RWRBOX

REGIONAL WEATHER ROUNDUP
NATIONAL WEATHER SERVICE BOSTON/NORTON MA
600 AM EST SUN DEC 08 2019

NOTE:  "FAIR" INDICATES FEW OR NO CLOUDS BELOW 12,000 FEET WITH NO 
SIGNIFICANT WEATHER AND/OR OBSTRUCTIONS TO VISIBILITY.

MAZALL-081200-
EASTERN MASSACHUSETTS
  
CITY           SKY/WX    TMP DP  RH WIND       PRES   REMARKS
BOSTON         FAIR      24  12  60 NW5       30.52R WCI  18          
BEVERLY        FAIR      13   8  81 CALM      30.50S                  
LAWRENCE       FAIR      10   5  80 CALM      30.52R                  
BEDFORD        FAIR       5   0  79 CALM      30.51R                  
BLUE HILL        N/A     16  11  80 W9        30.46R WCI   4          
NORWOOD        FAIR      12   5  73 CALM      30.52R                  
MARSHFIELD     FAIR      16  14  93 W5        30.52R WCI   9          
PLYMOUTH       FAIR      12  11  95 CALM      30.51S                  
TAUNTON        FAIR      11   5  77 CALM      30.52R                  
NEW BEDFORD    FAIR      16  12  84 CALM      30.52R                  
$$

MAZALL-081200-
CAPE COD AND THE ISLANDS
  
CITY           SKY/WX    TMP DP  RH WIND       PRES   REMARKS
FALMOUTH       CLEAR     16  12  86 NW6       30.51S WCI   7          
HYANNIS        FAIR      23  11  60 W5        30.50R WCI  17          
CHATHAM        FAIR      22  16  78 CALM      30.51R                  
PROVINCETOWN   FAIR      28  18  66 NW6       30.51R WCI  22          
NANTUCKET      FAIR      26  18  71 N6        30.51R WCI  19          
MARTHAS VNYRD  FAIR      14   9  80 CALM      30.52R                  
$$
 
MAZALL-081200-
CENTRAL AND WESTERN MASSACHUSETTS
  
CITY           SKY/WX    TMP DP  RH WIND       PRES   REMARKS
WORCESTER      FAIR      14   9  80 W8        30.44R WCI   3          
FITCHBURG      FAIR       2  -3  80 CALM      30.50R                  
ORANGE         FAIR      -7 -13  75 CALM      30.50R                  
SPRINGFIELD    FAIR      -3  -7  80 CALM      30.51R                  
WESTFIELD      FAIR       1  -4  79 CALM      30.52R                  
NORTH ADAMS    FAIR      -2  -8  76 CALM      30.50R                  
PITTSFIELD     FAIR       5   1  83 CALM      30.43R                  
$$
 
RIZALL-081200-
RHODE ISLAND
  
CITY           SKY/WX    TMP DP  RH WIND       PRES   REMARKS
PROVIDENCE     FAIR      18  13  80 W5        30.53R WCI  11          
NEWPORT        FAIR      20  13  74 CALM      30.52R                  
BLOCK ISLAND   FAIR      23  16  74 N3        30.53R                  
SMITHFIELD     FAIR      14  11  87 CALM      30.49S                  
WESTERLY       FAIR      19  11  70 CALM      30.54R                  
$$
 
CTZALL-081200-
CONNECTICUT
  
CITY           SKY/WX    TMP DP  RH WIND       PRES   REMARKS
BRADLEY INTL   FAIR      11   3  70 CALM      30.52R                  
HARTFORD       FAIR      16  12  84 CALM      30.54R                  
BRIDGEPORT     FAIR      21  15  78 N5        30.54R WCI  15          
DANBURY        FAIR      13   9  84 CALM      30.53R                  
GROTON         FAIR      19  13  77 CALM      30.53R                  
NEW HAVEN      FAIR      19  12  74 CALM      30.54R                  
CHESTER        FAIR      16  12  86 CALM      30.50S                  
MERIDEN        FAIR      14   9  80 CALM      30.53S                  
WILLIMANTIC    FAIR       9   4  80 CALM      30.54R                  
OXFORD         FAIR      10   8  92 CALM      30.49R                  
$$

MEZ002-015-021-024-NHZ003-005-008-011-012-014-VTZ005-008-081200-
NORTHERN NEW ENGLAND
  
CITY           SKY/WX    TMP DP  RH WIND       PRES   REMARKS
PORTLAND ME    FAIR      11   4  73 CALM      30.49R                  
BANGOR ME      FAIR       7   4  87 CALM      30.44R                  
CONCORD NH     FAIR      -2  -7  79 CALM      30.49R                  
MANCHESTER NH  FAIR       3  -2  79 CALM      30.48R                  
NASHUA NH      FAIR      -1  -2  95 CALM      30.51R                  
PORTSMOUTH NH  CLEAR     13  10  86 W7        30.48S WCI   3          
JAFFREY NH     FAIR      -7 -13  75 CALM      30.43R                  
KEENE NH       FAIR      -7 -11  83 CALM      30.52R                  
BURLINGTON VT  FAIR       6   2  83 CALM      30.44F                  
MT. WASHINGTON PTCLDY     5   1  85 W36         N/A  WCI -21          
$$

NYZ052-076-081200-
EASTERN NEW YORK
  
CITY           SKY/WX    TMP DP  RH WIND       PRES   REMARKS
ALBANY         FAIR       6   0  76 CALM      30.52R                  
NEW YORK CITY  FAIR      28  16  60 E5        30.52  WCI  23          
$$
 
ANZALL-081200-
MARINE OBSERVATIONS
  
STATION/POSITION TIME  TEMP    WIND        PRES    VSBY  WAVE
                       AIR SEA DIR/SP/G                  HT/PER
                 (UTC) (F)     (DEG/KT/KT) (MB)    (MI)  (FT/S)
BOSTON BUOY      1050   28 47  310/  8/ 12 1032.5R         2/ 4
BUZZARDS BAY     1000   27     350/  8/  9 1033.6R
NANTUCKET SOUND  1040      41                N/A           1/ 2
MASS BAY-STELLWA 1004   26 46  320/ 14/ 16 1031.3R  1 7/8  2/ 3
ISLE OF SHOALS   1000   22     280/ 15/ 16 1032.1R
S OF BLOCK IS    1100      52                N/A           2/ 4
$$

......................KEY.........................
  SKY/WX - SKY CONDITION/PRESENT WEATHER
  TMP    - TEMPERATURE IN FAHRENHEIT
  DWPT   - DEWPOINT IN FAHRENHEIT
  RH     - RELATIVE HUMIDITY IN PERCENT
  WIND   - DIRECTION AND SPEED IN MPH
  PRES   - MEAN SEA LEVEL PRESSURE IN INCHES OF HG
  WCI    - WIND CHILL INDEX
  VSB    - VISIBILITY IN MILES
  HX     - HEAT INDEX
  TC     - TEMPERATURE IN CELSIUS
  VRB    - VARIABLE WIND DIRECTION
  N/A    - NOT AVAILABLE
  
      

Other recent Regional Weather Roundups

Sun Dec 8, 3:10pm

Sun Dec 8, 3:01pm

Sun Dec 8, 2:10pm

Sun Dec 8, 2:01pm

Sun Dec 8, 1:10pm

Sun Dec 8, 1:00pm

Sun Dec 8, 12:10pm

Sun Dec 8, 12:01pm

Sun Dec 8, 11:10am

Sun Dec 8, 11:00am

Sun Dec 8, 10:10am

Sun Dec 8, 10:01am

Sun Dec 8, 9:10am

Sun Dec 8, 9:00am

Sun Dec 8, 8:10am

Sun Dec 8, 8:00am

Sun Dec 8, 7:10am

Sun Dec 8, 7:00am

Sun Dec 8, 6:00am

Sun Dec 8, 5:10am

Sun Dec 8, 5:00am

Sun Dec 8, 4:10am

Sun Dec 8, 4:00am

Sun Dec 8, 3:10am

Sun Dec 8, 3:00am

Sun Dec 8, 2:10am

Sun Dec 8, 2:00am

Sun Dec 8, 1:10am

Sun Dec 8, 1:00am

Sun Dec 8, 12:10am

Sun Dec 8, 12:01am

Sat Dec 7, 11:10pm

Sat Dec 7, 11:00pm

Sat Dec 7, 10:10pm

Sat Dec 7, 10:00pm

Sat Dec 7, 9:10pm

Sat Dec 7, 9:00pm

Sat Dec 7, 8:10pm

Sat Dec 7, 8:00pm

Sat Dec 7, 7:10pm

Sat Dec 7, 7:00pm

Sat Dec 7, 6:10pm

Sat Dec 7, 6:00pm

Sat Dec 7, 5:10pm

Sat Dec 7, 5:00pm

Sat Dec 7, 4:10pm

Sat Dec 7, 4:00pm

Sat Dec 7, 3:10pm

Sat Dec 7, 3:00pm

Sat Dec 7, 2:10pm

Sat Dec 7, 2:01pm

Sat Dec 7, 1:10pm

Sat Dec 7, 1:00pm

Sat Dec 7, 12:10pm

Sat Dec 7, 12:01pm

Sat Dec 7, 11:10am

Sat Dec 7, 11:00am

Sat Dec 7, 10:10am

Sat Dec 7, 10:01am

Sat Dec 7, 9:10am

Sat Dec 7, 9:00am

Sat Dec 7, 8:10am

Sat Dec 7, 8:00am

Sat Dec 7, 7:10am

Sat Dec 7, 7:00am

Sat Dec 7, 6:10am

Sat Dec 7, 6:00am

Sat Dec 7, 5:10am

Sat Dec 7, 5:00am

Sat Dec 7, 4:10am

Sat Dec 7, 4:00am

Sat Dec 7, 3:10am

Sat Dec 7, 3:00am

Sat Dec 7, 2:10am

Sat Dec 7, 2:01am

Sat Dec 7, 1:10am

Sat Dec 7, 1:00am

Sat Dec 7, 12:10am

Sat Dec 7, 12:01am

Fri Dec 6, 11:10pm

Fri Dec 6, 11:00pm

Fri Dec 6, 10:10pm

Fri Dec 6, 10:00pm

Fri Dec 6, 9:10pm

Fri Dec 6, 9:00pm

Fri Dec 6, 8:10pm

Fri Dec 6, 8:00pm

Fri Dec 6, 7:10pm

Fri Dec 6, 7:01pm

Fri Dec 6, 6:10pm

Fri Dec 6, 6:00pm

Fri Dec 6, 5:10pm

Fri Dec 6, 5:00pm

Fri Dec 6, 4:10pm

Fri Dec 6, 4:00pm

Fri Dec 6, 3:10pm

Fri Dec 6, 3:00pm

Fri Dec 6, 2:10pm

Fri Dec 6, 2:00pm

Fri Dec 6, 1:10pm

Fri Dec 6, 1:00pm

Fri Dec 6, 12:10pm

Fri Dec 6, 12:00pm

Fri Dec 6, 11:10am

Fri Dec 6, 11:00am

Fri Dec 6, 10:10am

Fri Dec 6, 10:00am

Fri Dec 6, 9:10am

Fri Dec 6, 9:00am

Fri Dec 6, 8:10am

Fri Dec 6, 8:00am

Fri Dec 6, 7:10am

Fri Dec 6, 7:00am

Fri Dec 6, 6:10am

Fri Dec 6, 6:01am

Fri Dec 6, 5:10am

Fri Dec 6, 5:00am

Fri Dec 6, 4:10am

Fri Dec 6, 4:00am

Fri Dec 6, 3:10am

Fri Dec 6, 3:00am

Fri Dec 6, 2:10am

Fri Dec 6, 2:00am

Fri Dec 6, 1:10am

Fri Dec 6, 1:00am

Fri Dec 6, 12:10am

Fri Dec 6, 12:00am

Thu Dec 5, 11:10pm

Thu Dec 5, 11:00pm

Thu Dec 5, 10:10pm

Thu Dec 5, 10:01pm

Thu Dec 5, 9:10pm

Thu Dec 5, 9:01pm

Thu Dec 5, 8:10pm

Thu Dec 5, 8:00pm

Thu Dec 5, 7:10pm

Thu Dec 5, 7:00pm

Thu Dec 5, 6:10pm

Thu Dec 5, 6:00pm

Thu Dec 5, 5:10pm

Thu Dec 5, 5:00pm

Thu Dec 5, 4:10pm

Thu Dec 5, 4:00pm

Meta data:

ID: 9ca9dfa2-f187-4f68-bae2-ba68f91c6b86
Link: https://api.weather.gov/products/9ca9dfa2-f187-4f68-bae2-ba68f91c6b86